Weather History for KEBG - July, 2013

Change the Weather History Date:

Tuesday, July 16, 2013

  Actual Average (KMFE) Record (KMFE)
Temperature  
Mean Temperature 84 °F 87 °F  
Max Temperature 92 °F 97 °F 104 °F (2009)
Min Temperature 77 °F 76 °F 66 °F (1974)
Degree Days  
Heating Degree Days 0 0  
Month to date heating degree days 0  
Since 1 June heating degree days 0  
Since 1 July heating degree days 0  
Cooling Degree Days 19 22  
Month to date cooling degree days 342  
Year to date cooling degree days 2225  
Since 1 June cooling degree days 970  
Growing Degree Days 34 (Base 50)    
Moisture  
Dew Point 72 °F    
Average Humidity 70    
Maximum Humidity 86    
Minimum Humidity 47    
Precipitation  
Precipitation 0.00 in 0.07 in 3.77 in (2007)
Month to date precipitation 1.21  
Year to date precipitation 10.57  
Sea Level Pressure  
Sea Level Pressure 29.95 in    
Wind  
Wind Speed 7 mph (East)    
Max Wind Speed 22 mph    
Max Gust Speed 28 mph    
Visibility 7 miles    
Events      
T = Trace of Precipitation, MM = Missing Value Source: NWS Daily Summary

Daily Weather History Graph

Daily Weather History Graph

Search for Another Location

Airport or City:

Trip Planner

Search our weather history database for the weather conditions in past years. The results will help you decide how hot, cold, wet, or windy it might be!

Date:

Astronomy

Jul. 16, 2013 Rise Set
Actual Time 6:49 AM CDT 8:27 PM CDT
Civil Twilight 6:24 AM CDT 8:52 PM CDT
Nautical Twilight 5:53 AM CDT 9:23 PM CDT
Astronomical Twilight 5:21 AM CDT 9:55 PM CDT
Moon 2:22 PM CDT (7/16) 1:04 AM CDT (7/16)
Length of Visible Light 14h 28m
Length of Day
13h 37m
First Quarter, 56% of the Moon is Illuminated
Jul 16
First Quarter
Jul 22
Full
Jul 29
Last Quarter
Aug 6
New
Aug 14
First Quarter

Hourly Weather History & Observations

Time (CDT) Temp. Heat Index Dew Point Humidity Pressure Visibility Wind Dir Wind Speed Gust Speed Precip Events Conditions
12:15 AM 82.4 °F 88.4 °F 73.9 °F 75% 29.95 in 7.0 mi ESE 8.1 mph - N/A   Clear
12:35 AM 81.9 °F 88.0 °F 74.3 °F 78% 29.95 in 7.0 mi ESE 8.1 mph - N/A   Clear
12:55 AM 81.5 °F 87.4 °F 74.3 °F 79% 29.94 in 10.0 mi East 4.6 mph - N/A   Clear
1:15 AM 81.3 °F 87.0 °F 74.3 °F 79% 29.94 in 10.0 mi East 6.9 mph - N/A   Clear
1:35 AM 81.1 °F 86.8 °F 74.3 °F 80% 29.95 in 7.0 mi ESE 4.6 mph - N/A   Clear
1:55 AM 81.3 °F 87.0 °F 74.3 °F 79% 29.95 in 7.0 mi ESE 5.8 mph - N/A   Clear
2:15 AM 81.1 °F 86.8 °F 74.3 °F 80% 29.95 in 7.0 mi ESE 3.5 mph - N/A   Scattered Clouds
2:35 AM 81.0 °F 86.3 °F 74.3 °F 80% 29.95 in 7.0 mi Calm Calm - N/A   Scattered Clouds
2:55 AM 80.6 °F 85.7 °F 74.3 °F 81% 29.94 in 7.0 mi Calm Calm - N/A   Clear
3:15 AM 80.6 °F 85.7 °F 74.3 °F 81% 29.94 in 7.0 mi Calm Calm - N/A   Clear
3:35 AM 80.6 °F 85.7 °F 74.1 °F 81% 29.94 in 5.0 mi Calm Calm - N/A   Haze
3:55 AM 80.1 °F 84.5 °F 73.8 °F 81% 29.94 in 7.0 mi NNE 3.5 mph - N/A   Clear
4:15 AM 79.9 °F - 73.8 °F 81% 29.93 in 10.0 mi NE 3.5 mph - N/A   Clear
4:35 AM 79.7 °F - 73.8 °F 82% 29.91 in 7.0 mi ENE 4.6 mph - N/A   Clear
4:55 AM 79.2 °F - 73.6 °F 83% 29.91 in 7.0 mi NE 3.5 mph - N/A   Clear
5:15 AM 79.3 °F - 73.8 °F 83% 29.91 in 7.0 mi NE 4.6 mph - N/A   Clear
5:35 AM 79.2 °F - 73.6 °F 83% 29.91 in 7.0 mi NE 3.5 mph - N/A   Clear
5:55 AM 78.8 °F - 73.4 °F 83% 29.91 in 7.0 mi ENE 4.6 mph - N/A   Clear
6:15 AM 78.8 °F - 73.4 °F 83% 29.92 in 7.0 mi NNE 3.5 mph - N/A   Clear
6:35 AM 78.1 °F - 73.0 °F 84% 29.93 in 7.0 mi North 3.5 mph - N/A   Clear
6:55 AM 77.4 °F - 73.0 °F 86% 29.93 in 7.0 mi Calm Calm - N/A   Clear
7:15 AM 78.1 °F - 73.6 °F 86% 29.93 in 7.0 mi NNE 3.5 mph - N/A   Clear
7:35 AM 78.4 °F - 73.4 °F 84% 29.93 in 7.0 mi NE 4.6 mph - N/A   Clear
7:55 AM 79.0 °F - 73.6 °F 83% 29.94 in 5.0 mi NE 4.6 mph - N/A   Haze
8:15 AM 79.7 °F - 73.8 °F 82% 29.95 in 7.0 mi ENE 6.9 mph - N/A   Clear
8:35 AM 80.2 °F 85.0 °F 74.3 °F 82% 29.96 in 7.0 mi NE 6.9 mph - N/A   Clear
8:55 AM 80.6 °F 85.5 °F 73.9 °F 80% 29.96 in 7.0 mi NE 6.9 mph - N/A   Clear
9:15 AM 81.5 °F 87.4 °F 74.3 °F 79% 29.97 in 7.0 mi ENE 5.8 mph - N/A   Clear
9:35 AM 82.4 °F 88.4 °F 73.9 °F 75% 29.97 in 7.0 mi NE 5.8 mph - N/A   Clear
9:55 AM 82.8 °F 89.0 °F 73.8 °F 74% 29.97 in 5.0 mi ENE 8.1 mph - N/A   Haze
10:15 AM 83.8 °F 90.4 °F 73.4 °F 71% 29.98 in 5.0 mi ENE 6.9 mph - N/A   Haze
10:35 AM 84.2 °F 90.6 °F 73.2 °F 69% 29.98 in 5.0 mi ENE 5.8 mph - N/A   Haze
10:55 AM 85.1 °F 91.8 °F 72.9 °F 67% 29.98 in 5.0 mi ESE 3.5 mph - N/A   Haze
11:15 AM 86.5 °F 93.3 °F 72.5 °F 63% 29.98 in 5.0 mi ESE 5.8 mph - N/A   Haze
11:35 AM 86.9 °F 92.9 °F 71.6 °F 60% 29.98 in 5.0 mi East 5.8 mph - N/A   Haze
11:55 AM 88.2 °F 94.1 °F 71.4 °F 57% 29.98 in 7.0 mi ESE 4.6 mph - N/A   Scattered Clouds
12:15 PM 87.4 °F 92.7 °F 70.7 °F 57% 29.99 in 5.0 mi East 8.1 mph - N/A   Haze
12:35 PM 87.4 °F 94.0 °F 72.0 °F 60% 29.98 in 5.0 mi East 8.1 mph - N/A   Haze
12:55 PM 86.7 °F 92.9 °F 71.8 °F 61% 29.98 in 7.0 mi East 12.7 mph - N/A   Overcast
1:15 PM 88.7 °F 95.2 °F 71.6 °F 57% 29.97 in 7.0 mi East 10.4 mph 18.4 mph N/A   Mostly Cloudy
1:35 PM 88.5 °F 94.4 °F 71.1 °F 56% 29.97 in 7.0 mi ESE 11.5 mph - N/A   Scattered Clouds
1:55 PM 89.4 °F 95.3 °F 70.9 °F 54% 29.97 in 5.0 mi East 11.5 mph 17.3 mph N/A   Haze
2:15 PM 89.6 °F 95.7 °F 71.1 °F 54% 29.96 in 10.0 mi East 11.5 mph 18.4 mph N/A   Mostly Cloudy
2:35 PM 89.8 °F 95.1 °F 70.2 °F 52% 29.96 in 7.0 mi East 11.5 mph 21.9 mph N/A   Scattered Clouds
2:55 PM 90.0 °F 96.4 °F 71.2 °F 54% 29.95 in 7.0 mi East 13.8 mph 18.4 mph N/A   Scattered Clouds
3:55 PM 91.0 °F 95.2 °F 68.4 °F 47% 29.94 in 7.0 mi East 11.5 mph 16.1 mph N/A   Mostly Cloudy
4:15 PM 91.4 °F 96.8 °F 69.6 °F 49% 29.93 in 7.0 mi East 12.7 mph 20.7 mph N/A   Mostly Cloudy
4:35 PM 90.0 °F 96.4 °F 71.2 °F 54% 29.93 in 7.0 mi ENE 21.9 mph 27.6 mph N/A   Overcast
4:55 PM 90.5 °F 96.0 °F 70.0 °F 51% 29.93 in 7.0 mi East 19.6 mph - N/A   Mostly Cloudy
5:15 PM 91.0 °F 97.1 °F 70.7 °F 51% 29.93 in 7.0 mi East 17.3 mph 27.6 mph N/A   Scattered Clouds
5:35 PM 91.0 °F 95.2 °F 68.4 °F 47% 29.93 in 7.0 mi East 19.6 mph - N/A   Scattered Clouds
5:55 PM 89.1 °F 93.7 °F 69.4 °F 52% 29.93 in 7.0 mi East 16.1 mph 25.3 mph N/A   Scattered Clouds
6:15 PM 90.3 °F 95.7 °F 70.0 °F 51% 29.93 in 5.0 mi East 16.1 mph - N/A   Haze
6:35 PM 90.1 °F 96.3 °F 70.7 °F 53% 29.93 in 7.0 mi East 18.4 mph - N/A   Scattered Clouds
6:55 PM 87.8 °F 93.0 °F 70.3 °F 56% 29.94 in 7.0 mi East 20.7 mph 24.2 mph N/A   Scattered Clouds
7:15 PM 87.1 °F 92.0 °F 70.2 °F 57% 29.94 in 7.0 mi East 20.7 mph - N/A   Clear
7:35 PM 86.0 °F 91.1 °F 70.5 °F 60% 29.94 in 5.0 mi East 19.6 mph - N/A   Haze
7:55 PM 85.3 °F 89.8 °F 69.8 °F 60% 29.94 in 7.0 mi East 18.4 mph - N/A   Clear
8:15 PM 84.4 °F 88.7 °F 70.2 °F 62% 29.96 in 10.0 mi East 13.8 mph - N/A   Clear
8:35 PM 83.7 °F 88.3 °F 70.7 °F 65% 29.96 in 10.0 mi East 13.8 mph - N/A   Clear
8:55 PM 83.3 °F 88.2 °F 71.2 °F 67% 29.97 in 10.0 mi East 9.2 mph - N/A   Clear
9:15 PM 82.9 °F 88.0 °F 72.0 °F 69% 29.97 in 10.0 mi East 10.4 mph - N/A   Clear
9:35 PM 82.6 °F 87.8 °F 72.1 °F 71% 29.98 in 10.0 mi East 10.4 mph - N/A   Clear
9:55 PM 82.2 °F 87.1 °F 71.8 °F 71% 29.99 in 10.0 mi East 10.4 mph - N/A   Clear
10:15 PM 81.9 °F 86.8 °F 72.5 °F 73% 30.00 in 10.0 mi East 10.4 mph - N/A   Scattered Clouds
10:35 PM 81.5 °F 86.5 °F 72.9 °F 75% 30.01 in 10.0 mi East 8.1 mph - N/A   Clear
10:55 PM 81.1 °F 86.2 °F 73.4 °F 77% 30.01 in 10.0 mi East 5.8 mph - N/A   Clear
11:15 PM 80.8 °F 85.6 °F 73.4 °F 78% 30.01 in 10.0 mi East 4.6 mph - N/A   Scattered Clouds
11:35 PM 80.8 °F 85.6 °F 73.4 °F 78% 30.01 in 10.0 mi East 5.8 mph - N/A   Scattered Clouds
11:55 PM 80.1 °F 84.0 °F 72.1 °F 77% 30.02 in 10.0 mi East 5.8 mph - N/A   Clear